TimeAKDT,TemperatureF,Dew PointF,Humidity,Sea Level PressureIn,VisibilityMPH,Wind Direction,Wind SpeedMPH,Gust SpeedMPH,PrecipitationIn,Events,Conditions,WindDirDegrees,DateUTC
12:54 AM,33.1,19.0,56,30.17,10.0,WNW,12.7,-,N/A,,Clear,300,2013-04-04 08:54:00
1:54 AM,32.0,19.0,59,30.17,10.0,NW,11.5,23.0,N/A,,Clear,310,2013-04-04 09:54:00
2:54 AM,33.1,18.0,54,30.16,10.0,NW,13.8,20.7,N/A,,Clear,310,2013-04-04 10:54:00
3:54 AM,32.0,18.0,56,30.14,10.0,WNW,12.7,-,N/A,,Clear,300,2013-04-04 11:54:00
4:54 AM,32.0,18.0,56,30.14,10.0,WNW,12.7,20.7,N/A,,Clear,300,2013-04-04 12:54:00
5:54 AM,32.0,17.1,54,30.14,10.0,WNW,13.8,20.7,N/A,,Clear,300,2013-04-04 13:54:00
6:54 AM,32.0,17.1,54,30.14,10.0,NNW,11.5,19.6,N/A,,Clear,330,2013-04-04 14:54:00
7:54 AM,30.9,19.0,61,30.14,10.0,North,4.6,-,N/A,,Clear,350,2013-04-04 15:54:00
8:54 AM,35.1,17.1,48,30.14,10.0,West,10.4,-,N/A,,Partly Cloudy,270,2013-04-04 16:54:00
9:54 AM,37.0,9.0,31,30.14,10.0,Variable,5.8,25.3,N/A,,Clear,0,2013-04-04 17:54:00
10:54 AM,37.0,6.1,28,30.13,10.0,Calm,Calm,-,N/A,,Partly Cloudy,0,2013-04-04 18:54:00
11:54 AM,36.0,3.9,26,30.12,10.0,WSW,13.8,18.4,N/A,,Clear,250,2013-04-04 19:54:00
12:54 PM,36.0,3.0,25,30.10,10.0,Variable,6.9,-,N/A,,Clear,0,2013-04-04 20:54:00
1:54 PM,37.0,1.9,23,30.09,10.0,WNW,5.8,-,N/A,,Clear,290,2013-04-04 21:54:00
2:54 PM,36.0,-0.0,22,30.06,10.0,WSW,9.2,-,N/A,,Clear,250,2013-04-04 22:54:00
3:54 PM,35.1,-0.9,22,30.03,10.0,East,8.1,18.4,N/A,,Clear,100,2013-04-04 23:54:00
4:54 PM,35.1,1.0,24,30.00,10.0,Variable,4.6,21.9,N/A,,Clear,0,2013-04-05 00:54:00
5:54 PM,35.1,-0.0,23,29.98,10.0,WNW,10.4,18.4,N/A,,Clear,300,2013-04-05 01:54:00
6:54 PM,35.1,1.0,24,29.95,10.0,WNW,8.1,24.2,N/A,,Clear,290,2013-04-05 02:54:00
7:54 PM,34.0,1.9,26,29.93,10.0,NW,8.1,17.3,N/A,,Clear,320,2013-04-05 03:54:00
8:54 PM,30.9,1.9,29,29.92,10.0,NW,9.2,-,N/A,,Clear,320,2013-04-05 04:54:00
9:54 PM,30.0,3.0,32,29.91,10.0,NW,9.2,-,N/A,,Clear,310,2013-04-05 05:54:00
10:54 PM,28.0,3.0,34,29.90,10.0,WNW,10.4,-,N/A,,Clear,300,2013-04-05 06:54:00
11:54 PM,28.0,3.9,36,29.88,10.0,WNW,12.7,-,N/A,,Clear,300,2013-04-05 07:54:00